Location: Unspecified
(0.0000°N, 0.0000°E)
Time: 00:11:42
(UTC+00:00)

Transit 2A Rocket - Visible Passes

Search period start: 20 November 2019 00:00
Search period end: 30 November 2019 00:00
Orbit: 594 x 909 km, 66.7° (Epoch: 18 November)

Date Brightness Start Highest point End Pass type
(mag) Time Alt. Az. Time Alt. Az. Time Alt. Az.
20 Nov 5.8 19:57:50 10° SSW 20:02:28 49° W 20:02:28 49° W visible
21 Nov 4.9 19:15:13 10° SSW 19:20:45 72° ESE 19:21:55 53° NE visible
22 Nov 5.8 18:33:16 10° S 18:38:13 33° ESE 18:41:22 18° ENE visible
22 Nov 7.4 20:17:29 10° WSW 20:20:26 15° WNW 20:21:20 14° WNW visible
23 Nov 6.5 19:33:16 10° SW 19:38:03 32° WNW 19:40:50 19° NNW visible
24 Nov 5.2 18:50:11 10° SSW 18:55:39 70° WNW 19:00:21 11° NNE visible
25 Nov 5.2 18:07:48 10° S 18:13:10 55° ESE 18:18:03 10° NNE visible
26 Nov 7.4 19:09:09 10° WSW 19:12:54 19° WNW 19:16:25 10° NNW visible
27 Nov 6.2 18:25:27 10° SW 18:30:30 41° WNW 18:35:09 10° N visible
28 Nov 6.8 05:12:28 10° N 05:16:45 30° ENE 05:21:23 10° SE visible
29 Nov 7.6 04:31:48 10° NE 04:34:22 14° ENE 04:37:04 10° ESE visible
29 Nov 7.8 18:46:16 10° W 18:47:44 11° WNW 18:49:11 10° NW visible
